This is the latest recevied weather packets stored in our database for station/object KE8ZLU. If no packets are shown the sender has not sent any weather packets the latest 10 day(s).
| Time | Temp. | Humidity | Pressure | Rain* | Wind** | Luminosity | Snow |
|---|---|---|---|---|---|---|---|
| 1778115273 | 9.44° C | 48% | 1014.3 hPa | 0 mm | - | 0 W/m² | - |
| 1778114969 | 9.44° C | 48% | 1014.4 hPa | 0 mm | - | 1 W/m² | - |
| 1778114666 | 9.44° C | 49% | 1014.4 hPa | 0 mm | - | 1 W/m² | - |
| 1778114364 | 9.44° C | 50% | 1014.2 hPa | 0 mm | - | 2 W/m² | - |
| 1778114059 | 9.44° C | 50% | 1014.5 hPa | 0 mm | - | 3 W/m² | - |
| 1778113754 | 9.44° C | 50% | 1014.3 hPa | 0 mm | - | 4 W/m² | - |
| 1778113450 | 10° C | 46% | 1014.2 hPa | 0 mm | - | 6 W/m² | - |
| 1778113148 | 10° C | 45% | 1014.3 hPa | 0 mm | - | 9 W/m² | - |
| 1778112844 | 10° C | 47% | 1014.2 hPa | 0 mm | - | 17 W/m² | - |
| 1778112542 | 10° C | 44% | 1014.1 hPa | 0 mm | - | 28 W/m² | - |
| 1778112236 | 10° C | 44% | 1014.1 hPa | 0 mm | - | 38 W/m² | - |
| 1778111933 | 10.56° C | 44% | 1013.9 hPa | 0 mm | - | 41 W/m² | - |
| 1778111631 | 10.56° C | 46% | 1014.1 hPa | 0 mm | - | 31 W/m² | - |
| 1778111326 | 10.56° C | 45% | 1014.1 hPa | 0 mm | - | 35 W/m² | - |
| 1778111024 | 10° C | 45% | 1014.2 hPa | 0 mm | - | 35 W/m² | - |
| 1778110721 | 10.56° C | 46% | 1014.1 hPa | 0 mm | - | 26 W/m² | - |
| 1778110417 | 10.56° C | 44% | 1013.9 hPa | 0 mm | - | 24 W/m² | - |
| 1778110114 | 10.56° C | 44% | 1013.8 hPa | 0 mm | - | 28 W/m² | - |
| 1778109810 | 10.56° C | 43% | 1014.1 hPa | 0 mm | - | 34 W/m² | - |
| 1778109507 | 10.56° C | 42% | 1013.9 hPa | 0 mm | - | 54 W/m² | - |
| 1778109204 | 10.56° C | 42% | 1013.8 hPa | 0 mm | - | 67 W/m² | - |
| 1778108902 | 11.11° C | 42% | 1013.9 hPa | 0 mm | - | 72 W/m² | - |
| 1778108598 | 11.11° C | 45% | 1013.7 hPa | 0 mm | - | 62 W/m² | - |
| 1778108294 | 11.11° C | 44% | 1013.7 hPa | 0 mm | - | 102 W/m² | - |
| 1778107992 | 10.56° C | 44% | 1013.9 hPa | 0 mm | - | 107 W/m² | - |
* Rain latest hour (hover to see other rain measurements)
** Current wind speed in m/s (hover to see current wind gust speed)